Regional Weather Roundup
Issued by NWS

Home | Current Version | Previous Version | Text Only | Print | Product List | Glossary Off
Versions: 1 2 3 4 5 6 7 8 9 10 11 12 13 14 15 16 17 18 19 20 21 22 23 24 25 26 27 28 29 30 31 32 33 34 35 36 37 38 39 40 41 42 43 44 45 46 47 48 49 50

000
ASUS43 KOAX 230610
RWRNE

WEATHER ROUNDUP FOR NEBRASKA
NATIONAL WEATHER SERVICE OMAHA NE
100 AM CDT SAT AUG 23 2014

NOTES: SATELLITE DATA IS BEING USED TO AUGMENT CLOUD COVER ABOVE
       12000 FEET.
       "FAIR" INDICATES FEW OR NO CLOUDS BELOW 12,000 FEET WITH NO
       SIGNIFICANT WEATHER AND/OR OBSTRUCTIONS TO VISIBILITY.

  * THESE STATIONS DO NOT REPORT WEATHER SUCH AS RAIN...SNOW OR FOG.

NEZ001>004-019>022-054>056-230700-
NEBRASKA PANHANDLE

CITY           SKY/WX    TMP DP  RH WIND       PRES   REMARKS
SCOTTSBLUFF    CLOUDY    63  61  93 NW5       29.99S
6HR MIN TEMP:  63; 6HR MAX TEMP:  69; 6HR PCP:  0.03;

ALLIANCE       LGT RAIN  62  60  93 E7        29.96F
6HR MIN TEMP:  62; 6HR MAX TEMP:  67; 6HR PCP:  0.13;

CHADRON        CLOUDY    68  58  70 E5        29.97S
6HR MIN TEMP:  66; 6HR MAX TEMP:  78;

KIMBALL        CLOUDY    59  58  97 CALM      30.00R
SIDNEY         CLOUDY    61  58  90 E7        30.00F
6HR MIN TEMP:  61; 6HR MAX TEMP:  65; 6HR PCP:  0.71;

$$

NEZ057>060-069>072-079>082-230700-
SOUTHWEST NEBRASKA

CITY           SKY/WX    TMP DP  RH WIND       PRES   REMARKS
NORTH PLATTE   HVY RAIN  67  65  93 SE14      29.95S FOG
6HR MIN TEMP:  65; 6HR MAX TEMP:  80; 6HR PCP:  0.87;

IMPERIAL       CLOUDY    67  64  90 S6        29.94F
6HR MIN TEMP:  67; 6HR MAX TEMP:  72; 6HR PCP:  0.24;

LEXINGTON      HVY RAIN  67  66  96 W8        30.02R
MCCOOK         CLOUDY    67  66  97 E12       29.92F
6HR MIN TEMP:  67; 6HR MAX TEMP:  83; 6HR PCP:  0.74;

OGALLALA       CLOUDY    64  62  93 E7        29.95F
$$

NEZ005>010-023>029-035>040-094-230700-
NORTH CENTRAL NEBRASKA

CITY           SKY/WX    TMP DP  RH WIND       PRES   REMARKS
VALENTINE      LGT RAIN  70  67  90 NE8       29.95F
6HR MIN TEMP:  70; 6HR MAX TEMP:  77; 6HR PCP:  0.01;

AINSWORTH      RAIN      70  69  95 NE8       29.93F
BROKEN BOW     LGT RAIN  67  67 100 S16G24    29.97F
6HR MIN TEMP:  67; 6HR MAX TEMP:  85; 6HR PCP:  0.19;

O`NEILL        LGT RAIN  73  72  95 SE16G23   29.95S
ORD            RAIN      66  65  96 SE9       29.97S
6HR MIN TEMP:  66; 6HR MAX TEMP:  82; 6HR PCP:  0.17;

THEDFORD       CLOUDY    67  65  94 SE13G20   29.97R
$$

NEZ041-046>049-061>064-073>077-083>087-230700-
SOUTH CENTRAL NEBRASKA

CITY           SKY/WX    TMP DP  RH WIND       PRES   REMARKS
GRAND ISLAND   LGT RAIN  68  66  93 N7        29.96F
6HR MIN TEMP:  67; 6HR MAX TEMP:  82; 6HR PCP:  0.74;

AURORA         LGT RAIN  69  69 100 NW3       29.95F
HASTINGS       LGT RAIN  68  65  90 NE6       29.97R
6HR MIN TEMP:  66; 6HR MAX TEMP:  82; 6HR PCP:  1.88;

HEBRON         FAIR      75  69  79 N5        29.92R
HOLDREGE       LGT RAIN  67  66  94 CALM      29.97R
KEARNEY *      CLOUDY    66  66 100 NW9       29.96F
YORK           CLOUDY    68 N/A N/A NW5       29.95F
$$

NEZ011>018-030>034-042>045-230700-
NORTHEAST NEBRASKA

CITY           SKY/WX    TMP DP  RH WIND       PRES   REMARKS
NORFOLK        TSTM      69  66  90 SW14G30   29.99R FOG
6HR MIN TEMP:  68; 6HR MAX TEMP:  85; 6HR PCP:  2.03;

ALBION         TSTM      67  65  93 CALM      29.99F
BLAIR          MOCLDY    74  72  93 S5        29.95R THUNDER FOG
FREMONT        MOCLDY    74  72  93 CALM      29.96R
TEKAMAH        FAIR      72  70  93 N3        29.93R
6HR MIN TEMP:  71; 6HR MAX TEMP:  75; 6HR PCP:  0.28;

WAYNE          FAIR      73  72  96 CALM      29.96R
$$

NEZ050>053-065>068-078-088>093-230700-
SOUTHEAST NEBRASKA

CITY           SKY/WX    TMP DP  RH WIND       PRES   REMARKS
LINCOLN        CLOUDY    73  68  84 NW14G28   29.97R
6HR MIN TEMP:  73; 6HR MAX TEMP:  89; 6HR PCP:  0.18;

OMAHA EPPLEY   CLOUDY    77  73  87 S5        29.93R THUNDER
6HR MIN TEMP:  75; 6HR MAX TEMP:  79;

BEATRICE       FAIR      74  73  96 NE3       29.91R
FALLS CITY     FAIR      75  73  93 SE6       29.88F
6HR MIN TEMP:  75; 6HR MAX TEMP:  80; 6HR PCP: TRACE;

NEBRASKA CITY  MOCLDY    74  73  96 E3        29.91S
PLATTSMOUTH    TSTM      74  71  89 NW7       29.94S
$$

NEZ044-045-051>053-067-230700-
OMAHA AREA

CITY           SKY/WX    TMP DP  RH WIND       PRES   REMARKS
OMAHA EPPLEY   CLOUDY    77  73  87 S5        29.93R THUNDER
6HR MIN TEMP:  75; 6HR MAX TEMP:  79;

BLAIR          MOCLDY    74  72  93 S5        29.95R THUNDER FOG
FREMONT        MOCLDY    74  72  93 CALM      29.96R
MILLARD        TSTM      74  72  93 SE3       29.94R
OFFUTT AFB     TSTM      76  76 100 W7        29.94R
PLATTSMOUTH    TSTM      74  71  89 NW7       29.94S
WAHOO          HVY RAIN  74  69  87 SW14G24   30.00R
$$


USA.gov is the U.S. government's official web portal to all federal, state and local government web resources and services.